Time,TemperatureF,DewpointF,PressureIn,WindDirection,WindDirectionDegrees,WindSpeedMPH,WindSpeedGustMPH,Humidity,HourlyPrecipIn,Conditions,Clouds,dailyrainin,SoftwareType,DateUTC
2013-02-11 00:00:00,42.3,34.6,29.78,ESE,113,1.8,2.9,74,0.00,,,0.07,WUHU216HW,2013-02-11 05:00:00,
2013-02-11 00:05:00,42.5,34.7,29.77,South,180,0.4,2.9,74,0.00,,,0.00,WUHU216HW,2013-02-11 05:05:00,
2013-02-11 00:10:00,42.5,34.7,29.77,SE,135,0.4,2.5,74,0.00,,,0.00,WUHU216HW,2013-02-11 05:10:00,
2013-02-11 00:15:00,42.7,34.9,29.77,East,90,1.1,2.2,74,0.00,,,0.00,WUHU216HW,2013-02-11 05:15:00,
2013-02-11 00:20:00,42.7,34.9,29.77,East,90,1.8,2.2,74,0.00,,,0.00,WUHU216HW,2013-02-11 05:20:00,
2013-02-11 00:25:00,42.8,35.5,29.76,SSW,203,1.8,2.2,75,0.00,,,0.00,WUHU216HW,2013-02-11 05:25:00,
2013-02-11 00:30:00,42.8,35.5,29.76,West,270,0.4,2.2,75,0.00,,,0.00,WUHU216HW,2013-02-11 05:30:00,
2013-02-11 00:35:00,43.0,35.7,29.76,NW,315,0.0,1.3,75,0.00,,,0.00,WUHU216HW,2013-02-11 05:35:00,
2013-02-11 00:40:00,43.0,35.7,29.76,SSE,158,0.2,1.1,75,0.00,,,0.00,WUHU216HW,2013-02-11 05:40:00,
2013-02-11 00:45:00,43.0,35.7,29.75,SSE,158,1.3,1.3,75,0.00,,,0.00,WUHU216HW,2013-02-11 05:45:00,
2013-02-11 00:50:00,43.2,36.1,29.75,SSE,158,0.0,1.8,76,0.00,,,0.00,WUHU216HW,2013-02-11 05:50:00,
2013-02-11 00:55:00,43.2,36.1,29.75,ESE,113,1.1,1.8,76,0.00,,,0.00,WUHU216HW,2013-02-11 05:55:00,
2013-02-11 01:00:00,43.2,36.1,29.75,ENE,68,1.1,1.6,76,0.00,,,0.00,WUHU216HW,2013-02-11 06:00:00,
2013-02-11 01:05:00,43.2,36.5,29.75,West,270,0.2,1.1,77,0.00,,,0.00,WUHU216HW,2013-02-11 06:05:00,
2013-02-11 01:10:00,43.4,36.3,29.75,West,270,0.9,0.9,76,0.00,,,0.00,WUHU216HW,2013-02-11 06:10:00,
2013-02-11 01:15:00,43.4,36.3,29.76,WSW,248,0.7,1.8,76,0.00,,,0.00,WUHU216HW,2013-02-11 06:15:00,
2013-02-11 01:20:00,43.4,36.6,29.75,NNW,338,0.9,1.8,77,0.00,,,0.00,WUHU216HW,2013-02-11 06:20:00,
2013-02-11 01:25:00,43.4,36.6,29.75,North,0,0.2,0.9,77,0.00,,,0.00,WUHU216HW,2013-02-11 06:25:00,
2013-02-11 01:30:00,43.4,36.6,29.76,North,0,0.0,0.4,77,0.00,,,0.00,WUHU216HW,2013-02-11 06:30:00,
2013-02-11 01:35:00,43.4,36.6,29.76,North,0,0.0,0.0,77,0.00,,,0.00,WUHU216HW,2013-02-11 06:35:00,
2013-02-11 01:40:00,43.4,36.6,29.76,North,0,0.4,1.1,77,0.00,,,0.00,WUHU216HW,2013-02-11 06:40:00,
2013-02-11 01:45:00,43.2,36.5,29.76,North,0,0.2,1.3,77,0.00,,,0.00,WUHU216HW,2013-02-11 06:45:00,
2013-02-11 01:50:00,43.0,36.3,29.76,North,0,1.1,1.3,77,0.00,,,0.00,WUHU216HW,2013-02-11 06:50:00,
2013-02-11 01:55:00,42.8,36.1,29.76,NNW,338,0.4,1.3,77,0.00,,,0.00,WUHU216HW,2013-02-11 06:55:00,
2013-02-11 02:00:00,42.7,35.9,29.76,North,0,0.9,1.1,77,0.00,,,0.00,WUHU216HW,2013-02-11 07:00:00,
2013-02-11 02:05:00,42.7,35.9,29.75,North,0,0.0,1.1,77,0.00,,,0.00,WUHU216HW,2013-02-11 07:05:00,
2013-02-11 02:10:00,42.7,36.3,29.76,North,0,1.1,1.1,78,0.00,,,0.00,WUHU216HW,2013-02-11 07:10:00,
2013-02-11 02:15:00,42.7,36.3,29.76,North,0,0.7,1.1,78,0.00,,,0.00,WUHU216HW,2013-02-11 07:15:00,
2013-02-11 02:20:00,42.5,36.1,29.76,North,0,0.0,1.1,78,0.00,,,0.00,WUHU216HW,2013-02-11 07:20:00,
2013-02-11 02:25:00,42.7,36.3,29.76,North,0,0.2,0.7,78,0.00,,,0.00,WUHU216HW,2013-02-11 07:25:00,
2013-02-11 02:30:00,42.5,36.1,29.75,North,0,0.0,0.7,78,0.00,,,0.00,WUHU216HW,2013-02-11 07:30:00,
2013-02-11 02:35:00,42.5,36.1,29.75,ESE,113,0.0,1.3,78,0.00,,,0.00,WUHU216HW,2013-02-11 07:35:00,
2013-02-11 02:40:00,42.5,35.7,29.75,ESE,113,0.9,1.3,77,0.00,,,0.00,WUHU216HW,2013-02-11 07:40:00,
2013-02-11 02:45:00,42.5,36.1,29.75,ESE,113,0.0,1.3,78,0.00,,,0.00,WUHU216HW,2013-02-11 07:45:00,
2013-02-11 02:50:00,42.5,36.1,29.75,ESE,113,0.0,0.4,78,0.00,,,0.00,WUHU216HW,2013-02-11 07:50:00,
2013-02-11 02:55:00,42.5,36.1,29.74,East,90,1.3,1.3,78,0.00,,,0.00,WUHU216HW,2013-02-11 07:55:00,
2013-02-11 03:00:00,42.3,35.9,29.74,ENE,68,0.9,1.8,78,0.00,,,0.00,WUHU216HW,2013-02-11 08:00:00,
2013-02-11 03:05:00,42.1,35.7,29.73,NE,45,1.8,2.5,78,0.00,,,0.00,WUHU216HW,2013-02-11 08:05:00,
2013-02-11 03:10:00,41.9,35.6,29.72,East,90,1.6,2.5,78,0.00,,,0.00,WUHU216HW,2013-02-11 08:10:00,
2013-02-11 03:15:00,41.9,35.6,29.72,ENE,68,0.4,2.5,78,0.00,,,0.00,WUHU216HW,2013-02-11 08:15:00,
2013-02-11 03:20:00,41.9,35.8,29.72,East,90,0.0,1.6,79,0.00,,,0.00,WUHU216HW,2013-02-11 08:20:00,
2013-02-11 03:25:00,41.9,35.8,29.71,East,90,0.7,1.6,79,0.00,,,0.00,WUHU216HW,2013-02-11 08:25:00,
2013-02-11 03:30:00,41.9,35.8,29.71,ENE,68,0.0,1.1,79,0.00,,,0.00,WUHU216HW,2013-02-11 08:30:00,
2013-02-11 03:35:00,42.1,36.0,29.71,ENE,68,0.0,0.7,79,0.00,,,0.00,WUHU216HW,2013-02-11 08:35:00,
2013-02-11 03:40:00,42.1,36.0,29.71,ENE,68,0.0,0.0,79,0.00,,,0.00,WUHU216HW,2013-02-11 08:40:00,
2013-02-11 03:45:00,42.1,36.0,29.70,East,90,0.4,0.4,79,0.00,,,0.00,WUHU216HW,2013-02-11 08:45:00,
2013-02-11 03:50:00,42.1,36.0,29.70,East,90,0.0,0.4,79,0.00,,,0.00,WUHU216HW,2013-02-11 08:50:00,
2013-02-11 03:55:00,42.1,36.0,29.70,East,90,0.0,0.2,79,0.00,,,0.00,WUHU216HW,2013-02-11 08:55:00,
2013-02-11 04:00:00,42.1,36.0,29.70,East,90,0.0,0.0,79,0.00,,,0.00,WUHU216HW,2013-02-11 09:00:00,
2013-02-11 04:05:00,42.1,36.0,29.70,East,90,0.4,0.7,79,0.00,,,0.00,WUHU216HW,2013-02-11 09:05:00,
2013-02-11 04:10:00,42.3,36.2,29.70,ENE,68,0.0,0.7,79,0.01,,,0.00,WUHU216HW,2013-02-11 09:10:00,
2013-02-11 04:15:00,42.1,36.0,29.70,NNW,338,0.4,0.4,79,0.01,,,0.00,WUHU216HW,2013-02-11 09:15:00,
2013-02-11 04:20:00,42.1,36.4,29.71,North,0,1.1,1.1,80,0.01,,,0.00,WUHU216HW,2013-02-11 09:20:00,
2013-02-11 04:25:00,42.1,36.4,29.71,North,0,1.1,1.6,80,0.02,,,0.02,WUHU216HW,2013-02-11 09:25:00,
2013-02-11 04:30:00,42.1,36.4,29.70,North,0,0.4,1.6,80,0.02,,,0.02,WUHU216HW,2013-02-11 09:30:00,
2013-02-11 04:35:00,42.1,36.6,29.70,NNW,338,0.0,1.3,81,0.02,,,0.02,WUHU216HW,2013-02-11 09:35:00,
2013-02-11 04:40:00,41.9,36.5,29.71,NNW,338,0.0,0.9,81,0.03,,,0.02,WUHU216HW,2013-02-11 09:40:00,
2013-02-11 04:45:00,41.9,36.5,29.71,North,0,0.7,0.9,81,0.03,,,0.02,WUHU216HW,2013-02-11 09:45:00,
2013-02-11 04:50:00,41.8,36.3,29.71,North,0,0.0,1.1,81,0.03,,,0.02,WUHU216HW,2013-02-11 09:50:00,
2013-02-11 04:55:00,41.9,36.5,29.71,North,0,1.3,1.3,81,0.03,,,0.02,WUHU216HW,2013-02-11 09:55:00,
2013-02-11 05:00:00,41.9,36.8,29.70,North,0,0.4,1.3,82,0.03,,,0.02,WUHU216HW,2013-02-11 10:00:00,
2013-02-11 05:05:00,41.8,36.6,29.70,NNE,23,0.0,0.9,82,0.02,,,0.02,WUHU216HW,2013-02-11 10:05:00,
2013-02-11 05:10:00,41.8,36.6,29.70,NNE,23,0.4,0.4,82,0.02,,,0.02,WUHU216HW,2013-02-11 10:10:00,
2013-02-11 05:15:00,41.8,36.6,29.70,NNE,23,0.0,0.4,82,0.02,,,0.02,WUHU216HW,2013-02-11 10:15:00,
2013-02-11 05:20:00,41.8,36.6,29.70,NNE,23,0.0,0.4,82,0.01,,,0.02,WUHU216HW,2013-02-11 10:20:00,
2013-02-11 05:25:00,41.9,36.8,29.71,NNE,23,0.0,0.4,82,0.01,,,0.02,WUHU216HW,2013-02-11 10:25:00,
2013-02-11 05:30:00,41.8,36.6,29.70,SE,135,0.4,0.4,82,0.02,,,0.02,WUHU216HW,2013-02-11 10:30:00,
2013-02-11 05:35:00,41.8,36.6,29.69,SE,135,0.0,0.4,82,0.02,,,0.04,WUHU216HW,2013-02-11 10:35:00,
2013-02-11 05:40:00,41.8,36.9,29.70,SE,135,0.0,0.2,83,0.01,,,0.04,WUHU216HW,2013-02-11 10:40:00,
2013-02-11 05:45:00,41.8,36.9,29.69,SE,135,0.4,0.4,83,0.01,,,0.04,WUHU216HW,2013-02-11 10:45:00,
2013-02-11 05:50:00,41.8,36.9,29.68,SE,135,0.0,0.4,83,0.02,,,0.05,WUHU216HW,2013-02-11 10:50:00,
2013-02-11 05:55:00,41.9,37.1,29.68,SE,135,0.0,0.2,83,0.02,,,0.05,WUHU216HW,2013-02-11 10:55:00,
2013-02-11 06:00:00,41.9,37.1,29.69,SE,135,0.0,0.2,83,0.02,,,0.05,WUHU216HW,2013-02-11 11:00:00,
2013-02-11 06:05:00,41.9,37.1,29.69,SE,135,0.0,0.4,83,0.02,,,0.05,WUHU216HW,2013-02-11 11:05:00,
2013-02-11 06:10:00,42.1,37.3,29.69,SSW,203,0.0,0.4,83,0.02,,,0.05,WUHU216HW,2013-02-11 11:10:00,
2013-02-11 06:15:00,41.9,37.1,29.69,North,0,1.1,1.1,83,0.02,,,0.05,WUHU216HW,2013-02-11 11:15:00,
2013-02-11 06:20:00,41.9,37.1,29.70,North,0,0.9,1.1,83,0.02,,,0.05,WUHU216HW,2013-02-11 11:20:00,
2013-02-11 06:25:00,41.9,37.1,29.70,NNW,338,0.4,0.9,83,0.02,,,0.05,WUHU216HW,2013-02-11 11:25:00,
2013-02-11 06:30:00,41.9,37.1,29.70,WSW,248,0.4,0.9,83,0.01,,,0.05,WUHU216HW,2013-02-11 11:30:00,
2013-02-11 06:35:00,41.9,37.5,29.70,NNE,23,0.4,0.7,84,0.02,,,0.05,WUHU216HW,2013-02-11 11:35:00,
2013-02-11 06:40:00,41.8,37.3,29.70,NNE,23,0.0,0.4,84,0.02,,,0.05,WUHU216HW,2013-02-11 11:40:00,
2013-02-11 06:45:00,41.8,37.3,29.70,SSW,203,0.0,1.1,84,0.01,,,0.05,WUHU216HW,2013-02-11 11:45:00,
2013-02-11 06:50:00,41.8,37.3,29.69,South,180,0.0,1.1,84,0.01,,,0.05,WUHU216HW,2013-02-11 11:50:00,
2013-02-11 06:55:00,41.8,37.3,29.69,South,180,0.7,1.6,84,0.01,,,0.05,WUHU216HW,2013-02-11 11:55:00,
2013-02-11 07:00:00,41.8,37.3,29.68,SSE,158,0.4,1.6,84,0.02,,,0.07,WUHU216HW,2013-02-11 12:00:00,
2013-02-11 07:05:00,41.6,36.7,29.68,ESE,113,0.0,1.1,83,0.02,,,0.07,WUHU216HW,2013-02-11 12:05:00,
2013-02-11 07:10:00,41.6,36.7,29.66,ESE,113,0.0,1.6,83,0.02,,,0.07,WUHU216HW,2013-02-11 12:10:00,
2013-02-11 07:15:00,41.6,36.7,29.66,SE,135,1.3,1.6,83,0.02,,,0.07,WUHU216HW,2013-02-11 12:15:00,
2013-02-11 07:20:00,41.4,36.9,29.66,East,90,1.8,1.8,84,0.02,,,0.07,WUHU216HW,2013-02-11 12:20:00,
2013-02-11 07:25:00,41.4,36.9,29.66,SE,135,0.0,1.8,84,0.02,,,0.07,WUHU216HW,2013-02-11 12:25:00,
2013-02-11 07:30:00,41.4,36.9,29.65,SSE,158,0.7,1.8,84,0.02,,,0.07,WUHU216HW,2013-02-11 12:30:00,
2013-02-11 07:35:00,41.6,37.1,29.65,SE,135,0.4,2.0,84,0.01,,,0.07,WUHU216HW,2013-02-11 12:35:00,
2013-02-11 07:40:00,41.6,37.1,29.66,ESE,113,0.0,2.0,84,0.01,,,0.07,WUHU216HW,2013-02-11 12:40:00,
2013-02-11 07:45:00,41.8,37.3,29.65,SW,225,0.0,1.1,84,0.01,,,0.07,WUHU216HW,2013-02-11 12:45:00,
2013-02-11 07:50:00,41.8,37.5,29.66,WSW,248,0.0,0.4,85,0.01,,,0.07,WUHU216HW,2013-02-11 12:50:00,
2013-02-11 07:55:00,41.9,38.0,29.66,WSW,248,0.0,0.2,86,0.01,,,0.07,WUHU216HW,2013-02-11 12:55:00,
2013-02-11 08:00:00,42.1,38.2,29.66,WSW,248,0.0,0.0,86,0.00,,,0.07,WUHU216HW,2013-02-11 13:00:00,
2013-02-11 08:05:00,42.1,38.2,29.66,WSW,248,0.0,0.0,86,0.00,,,0.07,WUHU216HW,2013-02-11 13:05:00,
2013-02-11 08:10:00,42.1,37.9,29.67,WSW,248,0.0,0.0,85,0.00,,,0.07,WUHU216HW,2013-02-11 13:10:00,
2013-02-11 08:15:00,42.3,38.1,29.67,NW,315,0.2,0.2,85,0.00,,,0.07,WUHU216HW,2013-02-11 13:15:00,
2013-02-11 08:20:00,42.3,38.1,29.67,North,0,0.0,1.1,85,0.00,,,0.07,WUHU216HW,2013-02-11 13:20:00,
2013-02-11 08:25:00,42.5,38.3,29.67,North,0,0.0,1.1,85,0.00,,,0.07,WUHU216HW,2013-02-11 13:25:00,
2013-02-11 08:30:00,42.5,38.3,29.66,North,0,0.4,1.1,85,0.00,,,0.07,WUHU216HW,2013-02-11 13:30:00,
2013-02-11 08:35:00,42.5,38.3,29.66,North,0,0.0,0.9,85,0.00,,,0.07,WUHU216HW,2013-02-11 13:35:00,
2013-02-11 08:40:00,42.7,38.4,29.66,NE,45,1.1,1.1,85,0.00,,,0.07,WUHU216HW,2013-02-11 13:40:00,
2013-02-11 08:45:00,42.7,38.7,29.66,East,90,0.9,1.1,86,0.00,,,0.07,WUHU216HW,2013-02-11 13:45:00,
2013-02-11 08:50:00,42.7,38.7,29.66,East,90,0.7,1.3,86,0.00,,,0.07,WUHU216HW,2013-02-11 13:50:00,
2013-02-11 08:55:00,42.7,38.7,29.66,East,90,0.4,1.3,86,0.00,,,0.07,WUHU216HW,2013-02-11 13:55:00,
2013-02-11 09:00:00,42.7,38.4,29.66,East,90,0.0,1.1,85,0.00,,,0.07,WUHU216HW,2013-02-11 14:00:00,
2013-02-11 09:05:00,42.7,38.4,29.66,East,90,1.1,1.6,85,0.00,,,0.07,WUHU216HW,2013-02-11 14:05:00,
2013-02-11 09:10:00,42.8,38.9,29.65,ESE,113,0.4,1.6,86,0.00,,,0.07,WUHU216HW,2013-02-11 14:10:00,
2013-02-11 09:15:00,42.7,38.4,29.65,ESE,113,0.9,1.1,85,0.00,,,0.07,WUHU216HW,2013-02-11 14:15:00,
2013-02-11 09:20:00,42.7,38.4,29.66,NNE,23,0.0,1.3,85,0.00,,,0.07,WUHU216HW,2013-02-11 14:20:00,
2013-02-11 09:25:00,42.8,38.6,29.66,North,0,0.2,1.3,85,0.00,,,0.07,WUHU216HW,2013-02-11 14:25:00,
2013-02-11 09:30:00,42.8,38.6,29.66,North,0,0.0,0.9,85,0.00,,,0.07,WUHU216HW,2013-02-11 14:30:00,
2013-02-11 09:35:00,43.0,38.8,29.66,North,0,0.0,0.4,85,0.00,,,0.07,WUHU216HW,2013-02-11 14:35:00,
2013-02-11 09:40:00,43.0,38.8,29.66,North,0,0.0,0.0,85,0.00,,,0.07,WUHU216HW,2013-02-11 14:40:00,
2013-02-11 09:45:00,43.2,39.2,29.66,North,0,0.0,0.0,86,0.00,,,0.07,WUHU216HW,2013-02-11 14:45:00,
2013-02-11 09:50:00,43.2,39.0,29.66,East,90,0.4,0.4,85,0.00,,,0.07,WUHU216HW,2013-02-11 14:50:00,
2013-02-11 09:55:00,43.4,39.4,29.66,ESE,113,0.2,1.1,86,0.00,,,0.07,WUHU216HW,2013-02-11 14:55:00,
2013-02-11 10:00:00,43.4,39.8,29.65,ESE,113,0.0,1.1,87,0.00,,,0.07,WUHU216HW,2013-02-11 15:00:00,
2013-02-11 10:05:00,43.6,39.6,29.65,ESE,113,0.4,1.1,86,0.00,,,0.07,WUHU216HW,2013-02-11 15:05:00,
2013-02-11 10:10:00,43.6,40.0,29.65,SE,135,0.4,1.1,87,0.00,,,0.07,WUHU216HW,2013-02-11 15:10:00,
2013-02-11 10:15:00,43.6,40.0,29.64,SE,135,0.4,0.7,87,0.00,,,0.07,WUHU216HW,2013-02-11 15:15:00,
2013-02-11 10:20:00,43.9,40.3,29.63,ESE,113,0.7,1.1,87,0.00,,,0.07,WUHU216HW,2013-02-11 15:20:00,
2013-02-11 10:25:00,44.1,40.5,29.63,SE,135,0.4,1.6,87,0.00,,,0.07,WUHU216HW,2013-02-11 15:25:00,
2013-02-11 10:30:00,44.3,40.7,29.64,ESE,113,0.9,1.6,87,0.00,,,0.07,WUHU216HW,2013-02-11 15:30:00,
2013-02-11 10:35:00,44.5,41.1,29.63,ESE,113,0.0,1.1,88,0.00,,,0.07,WUHU216HW,2013-02-11 15:35:00,
2013-02-11 10:40:00,44.6,41.3,29.63,ESE,113,0.2,0.4,88,0.00,,,0.07,WUHU216HW,2013-02-11 15:40:00,
2013-02-11 10:45:00,45.0,41.7,29.63,ESE,113,0.7,0.9,88,0.00,,,0.07,WUHU216HW,2013-02-11 15:45:00,
2013-02-11 10:50:00,45.0,41.7,29.63,ESE,113,0.7,0.9,88,0.00,,,0.07,WUHU216HW,2013-02-11 15:50:00,
2013-02-11 10:55:00,45.4,42.0,29.64,ESE,113,0.0,0.9,88,0.00,,,0.07,WUHU216HW,2013-02-11 15:55:00,
2013-02-11 11:00:00,45.5,42.2,29.64,SW,225,0.2,0.9,88,0.00,,,0.07,WUHU216HW,2013-02-11 16:00:00,
2013-02-11 11:05:00,45.7,42.4,29.64,WSW,248,0.2,0.4,88,0.00,,,0.07,WUHU216HW,2013-02-11 16:05:00,
2013-02-11 11:10:00,46.3,42.9,29.63,SW,225,0.9,1.8,88,0.00,,,0.07,WUHU216HW,2013-02-11 16:10:00,
2013-02-11 11:15:00,46.4,43.1,29.63,SW,225,0.4,1.8,88,0.00,,,0.07,WUHU216HW,2013-02-11 16:15:00,
2013-02-11 11:20:00,46.8,43.5,29.63,WNW,293,1.3,1.8,88,0.00,,,0.07,WUHU216HW,2013-02-11 16:20:00,
2013-02-11 11:25:00,47.2,43.8,29.62,North,0,0.0,1.8,88,0.00,,,0.07,WUHU216HW,2013-02-11 16:25:00,
2013-02-11 11:30:00,47.5,44.2,29.61,WSW,248,1.8,1.8,88,0.00,,,0.07,WUHU216HW,2013-02-11 16:30:00,
2013-02-11 11:35:00,47.9,44.6,29.61,SSW,203,1.1,1.8,88,0.00,,,0.07,WUHU216HW,2013-02-11 16:35:00,
2013-02-11 11:40:00,48.2,45.2,29.61,South,180,1.8,1.8,89,0.00,,,0.07,WUHU216HW,2013-02-11 16:40:00,
2013-02-11 11:45:00,48.6,45.5,29.61,SSE,158,1.8,2.2,89,0.00,,,0.07,WUHU216HW,2013-02-11 16:45:00,
2013-02-11 11:50:00,49.0,45.9,29.60,WSW,248,0.4,2.2,89,0.00,,,0.07,WUHU216HW,2013-02-11 16:50:00,
2013-02-11 11:55:00,49.1,46.1,29.61,SSE,158,2.7,2.7,89,0.00,,,0.07,WUHU216HW,2013-02-11 16:55:00,
2013-02-11 12:00:00,49.3,46.2,29.61,SSW,203,1.1,2.7,89,0.00,,,0.07,WUHU216HW,2013-02-11 17:00:00,
2013-02-11 12:05:00,49.5,46.4,29.60,SSW,203,1.1,3.1,89,0.00,,,0.07,WUHU216HW,2013-02-11 17:05:00,
2013-02-11 12:10:00,49.9,46.7,29.60,SW,225,2.0,3.1,89,0.00,,,0.07,WUHU216HW,2013-02-11 17:10:00,
2013-02-11 12:15:00,50.0,46.9,29.61,South,180,2.5,4.3,89,0.00,,,0.07,WUHU216HW,2013-02-11 17:15:00,
2013-02-11 12:20:00,50.0,47.2,29.60,SSW,203,1.1,4.3,90,0.00,,,0.07,WUHU216HW,2013-02-11 17:20:00,
2013-02-11 12:25:00,50.4,47.5,29.59,WSW,248,2.2,3.6,90,0.00,,,0.07,WUHU216HW,2013-02-11 17:25:00,
2013-02-11 12:30:00,50.4,47.3,29.59,NNW,338,1.8,3.6,89,0.00,,,0.07,WUHU216HW,2013-02-11 17:30:00,
2013-02-11 12:35:00,50.6,47.7,29.59,WSW,248,1.3,4.3,90,0.00,,,0.07,WUHU216HW,2013-02-11 17:35:00,
2013-02-11 12:40:00,50.8,47.9,29.58,South,180,2.5,4.3,90,0.00,,,0.07,WUHU216HW,2013-02-11 17:40:00,
2013-02-11 12:45:00,50.9,47.8,29.58,SSW,203,1.6,2.5,89,0.00,,,0.07,WUHU216HW,2013-02-11 17:45:00,
2013-02-11 12:50:00,51.1,48.0,29.58,SSW,203,1.1,2.0,89,0.00,,,0.07,WUHU216HW,2013-02-11 17:50:00,
2013-02-11 12:55:00,51.1,48.2,29.58,South,180,0.9,3.1,90,0.00,,,0.07,WUHU216HW,2013-02-11 17:55:00,
2013-02-11 13:00:00,51.3,48.4,29.57,SSW,203,1.3,3.1,90,0.00,,,0.07,WUHU216HW,2013-02-11 18:00:00,
2013-02-11 13:05:00,51.7,48.8,29.57,SSW,203,2.9,3.8,90,0.00,,,0.07,WUHU216HW,2013-02-11 18:05:00,
2013-02-11 13:10:00,51.8,49.5,29.56,South,180,2.2,3.8,92,0.00,,,0.07,WUHU216HW,2013-02-11 18:10:00,
2013-02-11 13:15:00,52.0,49.7,29.56,South,180,3.6,4.9,92,0.00,,,0.07,WUHU216HW,2013-02-11 18:15:00,
2013-02-11 13:20:00,52.2,49.9,29.55,SE,135,1.8,4.9,92,0.00,,,0.07,WUHU216HW,2013-02-11 18:20:00,
2013-02-11 13:25:00,52.2,49.9,29.54,SE,135,2.9,4.5,92,0.00,,,0.07,WUHU216HW,2013-02-11 18:25:00,
2013-02-11 13:31:00,52.6,50.2,29.53,SW,225,2.5,4.3,92,0.00,,,0.07,WUHU216HW,2013-02-11 18:31:00,
2013-02-11 13:36:00,53.1,50.8,29.53,West,270,2.2,3.8,92,0.00,,,0.07,WUHU216HW,2013-02-11 18:36:00,
2013-02-11 13:41:00,53.3,50.9,29.54,SSW,203,3.6,3.6,92,0.00,,,0.07,WUHU216HW,2013-02-11 18:41:00,
2013-02-11 13:46:00,53.5,51.1,29.54,South,180,3.4,4.0,92,0.00,,,0.07,WUHU216HW,2013-02-11 18:46:00,
2013-02-11 13:51:00,53.6,51.3,29.54,SSW,203,2.2,4.0,92,0.00,,,0.07,WUHU216HW,2013-02-11 18:51:00,
2013-02-11 13:56:00,53.6,51.3,29.54,East,90,0.9,3.8,92,0.00,,,0.07,WUHU216HW,2013-02-11 18:56:00,
2013-02-11 14:01:00,53.6,51.3,29.55,SSE,158,0.9,3.1,92,0.00,,,0.07,WUHU216HW,2013-02-11 19:01:00,
2013-02-11 14:06:00,53.6,51.3,29.55,ESE,113,1.1,1.6,92,0.00,,,0.07,WUHU216HW,2013-02-11 19:06:00,
2013-02-11 14:11:00,53.5,51.1,29.55,South,180,1.3,2.0,92,0.00,,,0.07,WUHU216HW,2013-02-11 19:11:00,
2013-02-11 14:16:00,53.5,51.1,29.55,SSE,158,0.9,2.9,92,0.00,,,0.07,WUHU216HW,2013-02-11 19:16:00,
2013-02-11 14:21:00,53.5,51.1,29.56,WSW,248,2.0,2.9,92,0.00,,,0.07,WUHU216HW,2013-02-11 19:21:00,
2013-02-11 14:26:00,53.5,50.9,29.56,NE,45,1.1,2.7,91,0.00,,,0.07,WUHU216HW,2013-02-11 19:26:00,
2013-02-11 14:31:00,53.3,50.7,29.56,SSE,158,0.7,5.4,91,0.00,,,0.07,WUHU216HW,2013-02-11 19:31:00,
2013-02-11 14:36:00,53.1,50.5,29.56,South,180,8.5,8.5,91,0.00,,,0.07,WUHU216HW,2013-02-11 19:36:00,
2013-02-11 14:41:00,52.9,50.3,29.56,WNW,293,1.6,8.5,91,0.00,,,0.07,WUHU216HW,2013-02-11 19:41:00,
2013-02-11 14:46:00,53.1,50.8,29.57,West,270,3.4,6.3,92,0.00,,,0.07,WUHU216HW,2013-02-11 19:46:00,
2013-02-11 14:51:00,53.3,50.9,29.57,West,270,2.0,7.2,92,0.00,,,0.07,WUHU216HW,2013-02-11 19:51:00,
2013-02-11 14:56:00,53.5,51.1,29.56,SSE,158,3.1,7.2,92,0.00,,,0.07,WUHU216HW,2013-02-11 19:56:00,
2013-02-11 15:01:00,53.6,51.3,29.54,SSW,203,2.5,5.6,92,0.00,,,0.07,WUHU216HW,2013-02-11 20:01:00,
2013-02-11 15:06:00,53.8,51.5,29.54,West,270,1.1,4.3,92,0.00,,,0.07,WUHU216HW,2013-02-11 20:06:00,
2013-02-11 15:11:00,54.0,51.4,29.54,SSW,203,2.5,4.9,91,0.00,,,0.07,WUHU216HW,2013-02-11 20:11:00,
2013-02-11 15:16:00,54.2,51.6,29.55,North,0,0.9,4.9,91,0.00,,,0.07,WUHU216HW,2013-02-11 20:16:00,
2013-02-11 15:21:00,54.2,51.6,29.55,ESE,113,1.1,2.5,91,0.00,,,0.07,WUHU216HW,2013-02-11 20:21:00,
2013-02-11 15:26:00,54.0,51.4,29.54,SW,225,1.8,2.0,91,0.00,,,0.07,WUHU216HW,2013-02-11 20:26:00,
2013-02-11 15:31:00,53.8,51.2,29.54,WNW,293,1.6,1.8,91,0.00,,,0.07,WUHU216HW,2013-02-11 20:31:00,
2013-02-11 15:36:00,53.6,51.0,29.54,WSW,248,1.8,1.8,91,0.00,,,0.07,WUHU216HW,2013-02-11 20:36:00,
2013-02-11 15:41:00,53.6,50.8,29.54,SW,225,1.1,1.8,90,0.00,,,0.07,WUHU216HW,2013-02-11 20:41:00,
2013-02-11 15:46:00,53.6,50.8,29.54,WSW,248,0.9,1.6,90,0.00,,,0.07,WUHU216HW,2013-02-11 20:46:00,
2013-02-11 15:51:00,53.6,50.8,29.54,WSW,248,1.6,1.6,90,0.00,,,0.07,WUHU216HW,2013-02-11 20:51:00,
2013-02-11 15:56:00,53.6,50.8,29.53,SE,135,1.8,1.8,90,0.00,,,0.07,WUHU216HW,2013-02-11 20:56:00,
2013-02-11 16:01:00,53.6,50.8,29.54,SW,225,1.6,1.8,90,0.00,,,0.07,WUHU216HW,2013-02-11 21:01:00,
2013-02-11 16:06:00,53.6,50.8,29.54,WSW,248,1.1,1.8,90,0.00,,,0.07,WUHU216HW,2013-02-11 21:06:00,
2013-02-11 16:11:00,53.6,50.8,29.53,SSE,158,1.8,1.8,90,0.00,,,0.07,WUHU216HW,2013-02-11 21:11:00,
2013-02-11 16:16:00,53.6,50.8,29.53,SSW,203,0.9,1.8,90,0.00,,,0.07,WUHU216HW,2013-02-11 21:16:00,
2013-02-11 16:21:00,53.6,50.8,29.53,SSW,203,2.0,2.0,90,0.00,,,0.07,WUHU216HW,2013-02-11 21:21:00,
2013-02-11 16:26:00,53.6,50.8,29.53,SSW,203,1.3,2.7,90,0.00,,,0.07,WUHU216HW,2013-02-11 21:26:00,
2013-02-11 16:31:00,53.8,50.9,29.54,WNW,293,1.1,2.7,90,0.00,,,0.07,WUHU216HW,2013-02-11 21:31:00,
2013-02-11 16:36:00,53.8,50.9,29.54,SW,225,0.2,1.8,90,0.00,,,0.07,WUHU216HW,2013-02-11 21:36:00,
2013-02-11 16:41:00,54.0,51.1,29.54,SW,225,1.3,1.3,90,0.00,,,0.07,WUHU216HW,2013-02-11 21:41:00,
2013-02-11 16:46:00,53.8,50.9,29.54,SW,225,0.4,1.6,90,0.00,,,0.07,WUHU216HW,2013-02-11 21:46:00,
2013-02-11 16:51:00,54.0,51.1,29.54,WNW,293,0.9,1.6,90,0.00,,,0.07,WUHU216HW,2013-02-11 21:51:00,
2013-02-11 16:56:00,54.0,51.1,29.54,WSW,248,0.4,1.8,90,0.00,,,0.07,WUHU216HW,2013-02-11 21:56:00,
2013-02-11 17:01:00,54.0,51.1,29.54,SSW,203,1.1,2.5,90,0.00,,,0.07,WUHU216HW,2013-02-11 22:01:00,
2013-02-11 17:06:00,54.2,51.3,29.53,SSW,203,1.6,4.0,90,0.00,,,0.07,WUHU216HW,2013-02-11 22:06:00,
2013-02-11 17:11:00,54.2,51.6,29.54,SSW,203,1.8,4.0,91,0.00,,,0.07,WUHU216HW,2013-02-11 22:11:00,
2013-02-11 17:16:00,54.4,51.8,29.54,North,0,1.6,2.5,91,0.00,,,0.07,WUHU216HW,2013-02-11 22:16:00,
2013-02-11 17:21:00,54.5,51.9,29.53,SW,225,2.5,3.4,91,0.00,,,0.07,WUHU216HW,2013-02-11 22:21:00,
2013-02-11 17:26:00,54.7,52.1,29.53,NW,315,4.0,4.0,91,0.00,,,0.07,WUHU216HW,2013-02-11 22:26:00,
2013-02-11 17:31:00,54.7,52.1,29.53,SSE,158,1.1,4.0,91,0.00,,,0.07,WUHU216HW,2013-02-11 22:31:00,
2013-02-11 17:36:00,54.9,52.3,29.53,WSW,248,1.6,3.1,91,0.00,,,0.07,WUHU216HW,2013-02-11 22:36:00,
2013-02-11 17:41:00,54.9,52.3,29.53,South,180,1.6,3.6,91,0.00,,,0.07,WUHU216HW,2013-02-11 22:41:00,
2013-02-11 17:46:00,54.9,52.3,29.52,South,180,0.9,3.6,91,0.00,,,0.07,WUHU216HW,2013-02-11 22:46:00,
2013-02-11 17:51:00,55.1,52.5,29.53,West,270,1.3,3.4,91,0.00,,,0.07,WUHU216HW,2013-02-11 22:51:00,
2013-02-11 17:56:00,55.1,52.5,29.53,WSW,248,0.9,2.2,91,0.00,,,0.07,WUHU216HW,2013-02-11 22:56:00,
2013-02-11 18:01:00,55.1,52.5,29.53,NW,315,0.7,2.7,91,0.00,,,0.07,WUHU216HW,2013-02-11 23:01:00,
2013-02-11 18:06:00,55.1,52.5,29.52,SE,135,0.4,2.7,91,0.00,,,0.07,WUHU216HW,2013-02-11 23:06:00,
2013-02-11 18:11:00,55.1,52.5,29.52,South,180,2.2,2.2,91,0.00,,,0.07,WUHU216HW,2013-02-11 23:11:00,
2013-02-11 18:16:00,55.1,52.5,29.53,WSW,248,2.5,2.5,91,0.00,,,0.07,WUHU216HW,2013-02-11 23:16:00,
2013-02-11 18:21:00,55.1,52.2,29.53,SSW,203,0.4,3.6,90,0.00,,,0.07,WUHU216HW,2013-02-11 23:21:00,
2013-02-11 18:26:00,55.1,52.2,29.53,SSW,203,0.4,3.6,90,0.00,,,0.07,WUHU216HW,2013-02-11 23:26:00,
2013-02-11 18:31:00,55.1,52.2,29.54,SSW,203,2.2,2.9,90,0.00,,,0.07,WUHU216HW,2013-02-11 23:31:00,
2013-02-11 18:36:00,54.9,52.0,29.54,NW,315,0.7,2.2,90,0.00,,,0.07,WUHU216HW,2013-02-11 23:36:00,
2013-02-11 18:41:00,54.9,52.0,29.55,SW,225,0.4,2.0,90,0.00,,,0.07,WUHU216HW,2013-02-11 23:41:00,
2013-02-11 18:46:00,54.9,52.0,29.54,SSW,203,2.2,2.5,90,0.00,,,0.07,WUHU216HW,2013-02-11 23:46:00,
2013-02-11 18:51:00,54.7,51.8,29.53,SSW,203,1.8,2.5,90,0.00,,,0.07,WUHU216HW,2013-02-11 23:51:00,
2013-02-11 18:56:00,54.7,51.8,29.54,NW,315,0.4,2.0,90,0.00,,,0.07,WUHU216HW,2013-02-11 23:56:00,
2013-02-11 19:01:00,54.7,51.8,29.54,SW,225,0.7,1.8,90,0.00,,,0.07,WUHU216HW,2013-02-12 00:01:00,
2013-02-11 19:06:00,54.7,51.8,29.54,South,180,2.9,2.9,90,0.00,,,0.07,WUHU216HW,2013-02-12 00:06:00,
2013-02-11 19:11:00,54.7,51.8,29.54,SSW,203,3.1,3.1,90,0.00,,,0.07,WUHU216HW,2013-02-12 00:11:00,
2013-02-11 19:16:00,54.7,51.8,29.55,SW,225,3.4,3.4,90,0.00,,,0.07,WUHU216HW,2013-02-12 00:16:00,
2013-02-11 19:21:00,54.7,51.8,29.54,SW,225,1.1,3.4,90,0.00,,,0.07,WUHU216HW,2013-02-12 00:21:00,
2013-02-11 19:26:00,54.7,51.8,29.55,WSW,248,0.7,2.7,90,0.00,,,0.07,WUHU216HW,2013-02-12 00:26:00,
2013-02-11 19:31:00,54.7,51.8,29.55,SSE,158,3.4,4.9,90,0.00,,,0.07,WUHU216HW,2013-02-12 00:31:00,
2013-02-11 19:36:00,54.7,51.8,29.55,SE,135,4.7,4.9,90,0.00,,,0.07,WUHU216HW,2013-02-12 00:36:00,
2013-02-11 19:41:00,54.7,51.8,29.54,WSW,248,3.8,4.7,90,0.00,,,0.07,WUHU216HW,2013-02-12 00:41:00,
2013-02-11 19:46:00,54.7,51.8,29.54,SSW,203,2.9,4.9,90,0.00,,,0.07,WUHU216HW,2013-02-12 00:46:00,
2013-02-11 19:51:00,54.7,51.8,29.55,SSW,203,1.8,4.9,90,0.00,,,0.07,WUHU216HW,2013-02-12 00:51:00,
2013-02-11 19:56:00,54.7,51.5,29.55,SSW,203,5.4,5.4,89,0.00,,,0.07,WUHU216HW,2013-02-12 00:56:00,
2013-02-11 20:01:00,54.7,51.8,29.55,WSW,248,3.6,5.4,90,0.00,,,0.07,WUHU216HW,2013-02-12 01:01:00,
2013-02-11 20:06:00,54.5,51.7,29.55,SSW,203,3.1,3.6,90,0.00,,,0.07,WUHU216HW,2013-02-12 01:06:00,
2013-02-11 20:11:00,54.5,51.3,29.55,SW,225,1.6,5.4,89,0.00,,,0.07,WUHU216HW,2013-02-12 01:11:00,
2013-02-11 20:16:00,54.5,51.3,29.55,West,270,2.5,5.4,89,0.00,,,0.07,WUHU216HW,2013-02-12 01:16:00,
2013-02-11 20:21:00,54.4,51.2,29.55,WSW,248,4.0,4.0,89,0.00,,,0.07,WUHU216HW,2013-02-12 01:21:00,
2013-02-11 20:26:00,54.4,51.2,29.55,East,90,2.7,4.0,89,0.00,,,0.07,WUHU216HW,2013-02-12 01:26:00,
2013-02-11 20:31:00,54.4,51.2,29.55,WSW,248,1.8,2.9,89,0.00,,,0.07,WUHU216HW,2013-02-12 01:31:00,
2013-02-11 20:36:00,54.4,51.2,29.55,West,270,1.6,2.7,89,0.00,,,0.07,WUHU216HW,2013-02-12 01:36:00,
2013-02-11 20:41:00,54.2,51.0,29.55,SW,225,0.9,3.6,89,0.00,,,0.07,WUHU216HW,2013-02-12 01:41:00,
2013-02-11 20:46:00,54.2,51.0,29.55,SW,225,1.1,3.6,89,0.00,,,0.07,WUHU216HW,2013-02-12 01:46:00,
2013-02-11 20:51:00,54.2,51.0,29.55,SW,225,2.0,3.1,89,0.00,,,0.07,WUHU216HW,2013-02-12 01:51:00,
2013-02-11 20:56:00,54.2,51.0,29.55,WSW,248,1.3,2.2,89,0.00,,,0.07,WUHU216HW,2013-02-12 01:56:00,
2013-02-11 21:01:00,54.2,51.3,29.55,West,270,1.1,3.1,90,0.00,,,0.07,WUHU216HW,2013-02-12 02:01:00,
2013-02-11 21:06:00,54.2,51.3,29.55,SW,225,1.1,4.0,90,0.00,,,0.07,WUHU216HW,2013-02-12 02:06:00,
2013-02-11 21:11:00,54.0,50.9,29.55,SSW,203,3.8,4.0,89,0.00,,,0.07,WUHU216HW,2013-02-12 02:11:00,
2013-02-11 21:16:00,54.0,50.9,29.54,SW,225,0.7,3.8,89,0.00,,,0.07,WUHU216HW,2013-02-12 02:16:00,
2013-02-11 21:21:00,54.0,50.9,29.55,SW,225,1.8,3.8,89,0.00,,,0.07,WUHU216HW,2013-02-12 02:21:00,
2013-02-11 21:26:00,53.8,50.7,29.55,SW,225,0.7,3.8,89,0.00,,,0.07,WUHU216HW,2013-02-12 02:26:00,
2013-02-11 21:31:00,53.8,50.7,29.54,SSW,203,1.8,2.0,89,0.00,,,0.07,WUHU216HW,2013-02-12 02:31:00,
2013-02-11 21:36:00,53.6,50.5,29.55,SSW,203,0.7,3.8,89,0.00,,,0.07,WUHU216HW,2013-02-12 02:36:00,
2013-02-11 21:41:00,53.6,50.5,29.55,SW,225,0.4,3.8,89,0.00,,,0.07,WUHU216HW,2013-02-12 02:41:00,
2013-02-11 21:46:00,53.6,50.5,29.55,SW,225,2.7,2.9,89,0.00,,,0.07,WUHU216HW,2013-02-12 02:46:00,
2013-02-11 21:51:00,53.5,50.3,29.55,South,180,1.3,2.9,89,0.00,,,0.07,WUHU216HW,2013-02-12 02:51:00,
2013-02-11 21:56:00,53.5,50.3,29.54,South,180,2.0,2.7,89,0.00,,,0.07,WUHU216HW,2013-02-12 02:56:00,
2013-02-11 22:01:00,53.3,50.1,29.54,WSW,248,1.1,2.7,89,0.00,,,0.07,WUHU216HW,2013-02-12 03:01:00,
2013-02-11 22:06:00,53.3,50.1,29.55,SW,225,2.2,2.7,89,0.00,,,0.07,WUHU216HW,2013-02-12 03:06:00,
2013-02-11 22:11:00,53.1,50.0,29.55,SSE,158,2.0,2.5,89,0.00,,,0.07,WUHU216HW,2013-02-12 03:11:00,
2013-02-11 22:16:00,53.1,50.0,29.55,NNW,338,0.7,2.2,89,0.00,,,0.07,WUHU216HW,2013-02-12 03:16:00,
2013-02-11 22:21:00,53.1,50.0,29.55,SSW,203,1.8,3.8,89,0.00,,,0.07,WUHU216HW,2013-02-12 03:21:00,
2013-02-11 22:26:00,52.9,49.8,29.55,South,180,1.8,3.8,89,0.00,,,0.07,WUHU216HW,2013-02-12 03:26:00,
2013-02-11 22:31:00,52.9,49.4,29.55,SW,225,1.1,4.0,88,0.00,,,0.07,WUHU216HW,2013-02-12 03:31:00,
2013-02-11 22:36:00,52.9,49.4,29.55,NW,315,1.1,4.0,88,0.00,,,0.07,WUHU216HW,2013-02-12 03:36:00,
2013-02-11 22:41:00,52.7,49.2,29.55,West,270,0.7,1.8,88,0.00,,,0.07,WUHU216HW,2013-02-12 03:41:00,
2013-02-11 22:46:00,52.7,49.2,29.56,WNW,293,0.2,1.8,88,0.00,,,0.07,WUHU216HW,2013-02-12 03:46:00,
2013-02-11 22:51:00,52.6,49.1,29.56,East,90,1.1,1.8,88,0.00,,,0.07,WUHU216HW,2013-02-12 03:51:00,
2013-02-11 22:56:00,52.6,48.8,29.56,WSW,248,0.4,1.3,87,0.00,,,0.07,WUHU216HW,2013-02-12 03:56:00,
2013-02-11 23:01:00,52.4,48.6,29.56,SSW,203,1.1,1.3,87,0.00,,,0.07,WUHU216HW,2013-02-12 04:01:00,
2013-02-11 23:06:00,52.2,48.4,29.56,NNW,338,0.0,1.3,87,0.00,,,0.07,WUHU216HW,2013-02-12 04:06:00,
2013-02-11 23:11:00,52.2,48.4,29.56,WNW,293,1.6,1.6,87,0.00,,,0.07,WUHU216HW,2013-02-12 04:11:00,
2013-02-11 23:16:00,52.0,48.3,29.56,WNW,293,0.0,1.6,87,0.00,,,0.07,WUHU216HW,2013-02-12 04:16:00,
2013-02-11 23:21:00,51.8,48.1,29.56,WSW,248,1.1,1.8,87,0.00,,,0.07,WUHU216HW,2013-02-12 04:21:00,
2013-02-11 23:26:00,51.8,48.1,29.56,SSW,203,0.0,1.8,87,0.00,,,0.07,WUHU216HW,2013-02-12 04:26:00,
2013-02-11 23:31:00,51.8,48.1,29.57,SSE,158,0.4,1.3,87,0.00,,,0.07,WUHU216HW,2013-02-12 04:31:00,
2013-02-11 23:36:00,51.7,47.5,29.57,East,90,0.4,1.3,86,0.00,,,0.07,WUHU216HW,2013-02-12 04:36:00,
2013-02-11 23:41:00,51.5,47.3,29.56,WSW,248,1.3,1.3,86,0.00,,,0.07,WUHU216HW,2013-02-12 04:41:00,
2013-02-11 23:46:00,51.5,47.3,29.56,NW,315,0.4,1.3,86,0.00,,,0.07,WUHU216HW,2013-02-12 04:46:00,
2013-02-11 23:51:00,51.5,47.3,29.56,SW,225,2.5,2.5,86,0.00,,,0.07,WUHU216HW,2013-02-12 04:51:00,
2013-02-11 23:56:00,51.3,47.2,29.56,SSE,158,1.1,2.5,86,0.00,,,0.07,WUHU216HW,2013-02-12 04:56:00,